GFSNIL_850_spd_000.txt.gz
Wind_Speed
17 14 12 10 7 6 6 9 12 15 17 17 16 17 19 21 23 25 26 28 28 28
17 15 13 10 8 6 7 10 13 15 17 17 17 19 21 23 26 27 27 28 28 28
17 15 12 9 7 6 8 11 14 16 17 17 18 20 23 25 26 27 28 29 30 31
16 13 11 8 6 7 10 13 15 17 16 17 19 22 24 25 27 28 29 30 32 34
14 11 9 7 7 8 11 14 15 15 16 18 21 23 25 27 27 29 31 31 32 34
12 10 8 7 8 10 12 14 14 15 18 20 23 25 26 27 29 30 30 31 33 36
10 9 7 7 8 10 12 13 13 16 19 22 23 25 28 29 30 30 30 31 34 34
10 8 7 7 8 11 11 12 15 19 21 22 25 27 29 29 29 30 31 33 33 32
9 7 7 8 9 10 11 13 17 20 23 24 26 28 28 28 29 31 31 31 29 30
7 7 7 9 10 10 12 16 19 21 24 26 28 29 29 27 28 29 30 30 31 30
6 6 8 9 9 10 14 18 21 23 25 28 29 28 29 29 28 29 28 25 26 29
5 7 8 8 9 13 17 20 23 25 27 29 28 28 28 25 28 28 27 25 26 29
6 7 7 8 11 16 20 22 25 27 27 27 27 27 26 23 25 28 29 31 32 34
6 6 7 10 14 19 22 24 27 28 27 27 28 27 24 20 23 28 31 33 35 39

GFSNIL_850_spd_003.txt.gz
Wind_Speed
24 21 17 13 11 10 8 8 9 12 14 16 16 17 18 19 21 22 23 24 24 24
24 21 17 14 12 10 9 9 10 13 15 16 17 18 19 21 22 22 23 24 26 27
22 19 17 14 11 10 9 9 11 14 16 17 17 19 21 22 22 24 24 27 28 29
21 18 16 13 11 10 9 11 13 15 17 18 19 21 22 23 24 25 27 28 29 31
18 16 14 12 10 10 10 12 14 16 17 18 20 22 23 24 25 27 29 30 30 32
16 14 12 11 10 10 11 13 15 16 17 19 21 22 24 26 27 28 29 30 32 32
14 12 11 10 10 10 12 14 15 16 18 21 22 24 26 27 28 30 30 31 30 30
13 12 11 10 10 11 13 15 16 17 19 21 24 26 27 28 29 31 32 31 30 29
12 11 10 9 10 12 14 14 15 19 21 24 26 28 29 27 30 31 30 31 30 27
12 10 9 9 12 13 13 14 17 20 24 26 28 28 28 26 28 29 28 27 26 24
10 8 8 11 11 11 13 16 20 23 26 28 28 28 28 24 27 27 26 25 23 26
7 8 9 10 11 13 15 19 22 25 27 28 28 27 26 23 26 26 28 26 27 29
8 7 9 10 12 15 18 21 24 25 26 26 26 26 24 21 23 28 31 31 32 33
7 8 9 11 14 18 21 23 25 25 25 25 26 26 23 20 23 27 30 34 34 36

GFSNIL_850_spd_006.txt.gz
Wind_Speed
21 23 22 18 15 12 9 8 8 10 12 15 16 17 18 19 19 21 21 21 22 23
24 23 21 18 15 12 10 9 10 11 14 16 18 19 19 20 21 21 22 23 24 26
24 22 20 17 14 12 11 11 11 13 16 17 19 19 20 20 21 22 23 26 28 28
23 21 18 16 14 13 12 11 12 15 17 18 19 20 21 22 23 25 27 28 30 31
20 19 16 15 14 13 12 12 14 16 18 19 19 21 22 24 26 28 29 30 31 32
19 17 16 14 13 12 12 13 15 17 18 19 20 22 24 26 28 29 30 31 32 32
17 16 14 13 12 11 12 14 15 17 18 20 21 23 26 28 29 30 30 30 31 30
16 14 13 12 11 11 12 14 16 17 18 21 23 26 28 28 29 30 31 30 28 26
15 14 12 11 10 11 12 14 16 17 20 22 25 27 28 29 27 30 30 29 26 24
13 12 10 10 10 11 12 14 16 19 22 25 27 28 29 27 26 28 27 26 27 26
11 10 9 9 10 11 13 15 18 21 24 27 28 28 28 27 25 25 24 26 26 28
10 9 8 8 10 12 14 17 20 23 26 28 27 28 28 25 24 24 26 26 28 32
9 7 7 9 11 13 16 19 23 24 25 25 27 28 26 22 22 26 28 28 32 31
5 5 8 9 11 15 18 21 23 23 24 25 26 27 24 21 22 26 28 32 33 34

GFSNIL_850_spd_009.txt.gz
Wind_Speed
25 26 27 27 25 20 15 11 9 9 9 12 14 16 17 18 18 18 19 19 20 21
27 26 28 28 23 18 14 11 10 10 11 13 15 17 18 18 18 19 19 20 21 23
27 27 28 25 21 16 13 11 10 11 12 14 16 18 18 19 19 19 20 22 23 25
29 29 26 22 18 15 13 11 10 11 13 15 16 18 18 18 19 20 22 24 26 27
29 27 24 20 17 14 13 11 10 12 13 15 17 18 18 19 21 23 25 26 28 29
27 25 21 18 16 14 11 10 11 12 13 16 17 19 19 21 23 25 26 27 29 29
24 21 19 16 14 11 10 10 11 12 15 17 18 19 21 23 25 26 27 28 28 26
22 19 17 15 12 10 8 9 11 13 16 17 18 21 23 25 25 27 28 28 26 24
20 18 15 12 9 8 8 9 12 14 16 18 20 22 24 25 25 26 26 27 25 25
18 16 12 9 7 6 8 10 13 15 17 19 22 23 24 25 25 25 25 25 25 25
15 12 9 7 5 6 9 11 13 16 18 21 23 24 25 25 24 24 23 22 23 25
12 9 6 4 5 7 9 12 14 17 20 21 22 24 24 24 23 22 23 24 23 27
10 6 3 4 6 8 10 13 16 18 19 21 22 23 23 21 20 22 24 23 23 26
6 3 3 5 7 9 12 14 16 17 18 20 22 23 23 21 18 21 24 24 24 27

GFSNIL_850_spd_012.txt.gz
Wind_Speed
31 28 26 28 31 30 27 22 17 13 10 8 8 10 12 14 15 15 15 15 16 17
31 28 28 30 31 29 25 20 15 12 10 9 9 11 13 14 15 15 16 16 17 18
31 27 29 30 31 27 22 18 15 12 10 9 10 12 14 15 16 15 17 18 19 20
32 28 30 31 29 25 20 17 14 11 10 10 11 13 14 15 16 17 19 19 21 23
32 31 32 30 26 21 18 15 13 10 9 10 12 13 15 16 17 19 20 21 23 23
31 31 30 27 23 20 16 14 11 9 9 11 13 15 16 16 18 20 21 21 22 22
30 29 27 24 21 17 14 11 9 9 10 12 14 15 17 18 19 19 20 22 21 21
30 27 24 22 18 15 11 9 8 9 11 13 14 16 17 18 18 19 20 20 20 20
27 25 22 19 15 11 9 8 9 10 12 13 15 17 19 21 20 19 18 19 20 20
25 22 19 14 11 8 7 8 9 11 13 14 16 19 20 21 21 19 19 20 19 20
22 18 15 11 8 6 7 8 10 11 13 16 18 19 20 22 20 19 18 18 19 20
16 14 11 8 6 6 7 9 10 12 15 16 18 20 21 23 20 16 17 18 20 21
14 11 8 7 6 6 6 9 11 14 15 17 18 20 22 23 17 17 18 19 20 21
12 10 7 5 4 5 7 10 12 14 15 17 19 21 22 21 17 16 19 20 21 20

GFSNIL_850_spd_015.txt.gz
Wind_Speed
36 33 28 31 33 32 30 27 24 20 16 11 9 8 9 11 12 14 14 14 14 14
35 32 29 30 32 32 28 25 23 19 14 11 8 8 10 12 13 15 15 15 15 16
31 31 30 30 33 30 25 23 21 17 13 10 9 9 11 13 14 14 14 16 16 18
33 32 30 32 31 28 24 22 19 15 11 9 9 10 12 13 14 16 15 16 18 21
33 32 31 32 29 26 23 21 17 13 10 9 9 11 13 14 15 16 17 18 20 22
34 32 32 30 26 25 22 18 14 11 9 9 11 13 14 16 16 17 18 19 20 21
35 33 31 28 26 23 18 14 11 9 8 10 12 14 15 16 17 18 19 20 20 21
33 30 28 26 22 18 15 12 9 8 8 10 13 15 16 18 19 20 19 20 20 19
31 28 25 21 17 14 12 9 7 7 9 12 14 15 17 19 20 20 19 20 21 21
29 25 21 17 14 12 10 7 6 7 10 12 14 16 18 19 20 21 19 22 22 20
26 21 17 16 12 10 7 5 6 9 11 13 15 16 18 20 21 20 19 19 18 19
18 18 15 13 11 7 4 5 7 9 11 13 12 18 18 21 22 19 17 16 18 19
17 15 13 10 6 3 4 5 8 10 12 13 14 17 20 22 19 17 16 17 18 18
16 13 9 6 3 2 4 6 8 10 11 14 16 18 20 20 18 15 18 19 21 22

GFSNIL_850_spd_018.txt.gz
Wind_Speed
35 33 34 38 41 37 37 36 30 26 23 18 14 10 8 8 9 11 12 13 14 14
35 37 33 37 40 39 36 34 29 25 23 18 14 10 8 9 11 12 13 15 15 16
40 37 32 37 40 37 34 30 27 26 22 17 12 9 9 10 12 12 14 16 17 17
38 32 33 36 36 33 31 28 26 24 20 15 11 10 10 11 13 14 16 16 18 20
33 34 36 36 35 32 28 26 25 21 16 13 10 9 11 12 14 16 16 17 18 20
34 36 38 37 34 30 27 25 22 17 13 10 8 10 11 13 14 15 16 17 20 22
38 39 37 34 33 29 25 21 19 15 11 8 8 11 13 14 15 16 17 18 20 22
38 38 36 34 29 25 24 20 15 10 8 7 9 12 14 15 16 17 18 19 19 21
37 36 34 31 27 23 19 15 11 8 6 8 11 12 15 16 16 17 19 20 20 22
37 32 25 28 23 21 16 10 6 5 6 9 14 13 15 16 17 18 19 19 20 22
28 25 25 21 19 14 10 7 4 4 8 11 12 14 14 16 18 19 18 17 17 18
28 27 21 17 15 11 7 4 4 7 9 9 11 15 16 18 19 19 18 16 17 18
21 20 19 14 10 7 3 3 5 6 7 9 10 14 18 20 21 21 18 18 18 18
21 17 13 10 7 3 2 2 3 5 7 10 13 15 18 21 21 18 19 22 21 23

GFSNIL_850_spd_021.txt.gz
Wind_Speed
44 44 43 43 44 39 41 45 38 34 32 29 25 20 15 11 9 8 9 10 11 11
45 41 41 41 37 40 43 42 38 36 33 28 24 19 14 11 9 9 10 12 13 13
43 38 38 34 36 41 42 43 40 35 31 27 22 18 13 11 10 10 12 13 15 15
38 35 35 30 33 40 44 42 38 34 30 25 20 17 13 10 10 11 12 14 15 16
33 36 34 29 37 40 42 39 35 29 25 23 20 15 11 10 11 12 14 14 15 16
36 35 34 35 37 39 38 35 29 27 25 21 16 12 10 10 11 13 14 15 16 18
34 36 37 36 37 37 35 31 30 27 22 17 13 10 10 10 12 13 14 15 17 19
36 35 37 36 35 34 30 28 26 24 19 15 11 9 10 10 12 14 15 16 17 19
36 36 37 36 32 28 27 27 22 19 14 11 9 8 9 11 12 13 15 17 18 19
34 34 33 32 30 26 23 17 15 12 9 7 7 8 10 11 12 14 16 18 20 20
32 29 26 22 21 22 19 16 10 7 8 6 7 8 10 12 13 15 17 19 20 20
24 24 24 23 21 18 14 11 12 8 6 5 6 9 11 13 15 17 18 18 17 17
29 26 24 21 17 16 13 9 5 4 4 5 6 10 13 17 18 19 17 15 18 18
22 19 19 19 16 12 7 7 5 3 4 7 9 11 14 17 18 17 17 20 21 21

GFSNIL_850_spd_024.txt.gz
Wind_Speed
39 43 46 44 41 41 45 46 46 41 38 35 32 30 26 22 18 15 12 10 10 11
37 44 45 44 41 39 42 44 43 37 38 36 33 31 28 22 18 15 13 11 11 12
36 38 44 43 40 38 40 40 40 40 40 37 35 30 25 21 19 15 13 11 12 13
34 39 40 40 37 37 36 40 40 40 40 37 34 30 26 20 17 14 13 12 13 15
33 36 38 36 35 31 34 39 39 42 39 35 33 29 26 19 17 12 12 13 15 16
31 33 33 33 31 33 34 37 39 40 37 35 28 26 22 19 14 12 12 14 16 18
31 32 31 32 33 32 33 36 37 36 32 28 22 21 16 14 11 11 14 15 17 18
32 31 31 33 33 31 31 31 34 31 26 24 22 14 14 11 11 12 13 15 17 17
30 32 32 34 33 31 31 31 26 23 20 16 14 13 12 12 12 12 14 14 16 17
34 33 32 29 25 26 27 26 22 17 15 15 14 11 11 10 12 12 13 15 17 18
28 29 25 24 26 23 22 22 21 22 18 13 12 10 9 9 10 12 14 16 18 19
22 21 22 22 24 26 23 18 15 14 10 5 7 9 10 9 10 13 15 16 16 16
24 26 26 24 21 18 16 14 9 6 5 7 7 8 10 12 14 16 17 16 17 19
25 25 23 20 18 17 13 10 9 7 6 6 6 7 9 11 16 19 20 20 21 20

GFSNIL_850_spd_027.txt.gz
Wind_Speed
28 31 36 36 39 45 49 43 42 44 46 44 39 37 34 32 30 27 23 19 16 14
28 28 32 35 37 38 44 45 42 43 46 44 40 38 35 32 29 25 21 17 14 14
30 30 28 30 39 41 41 43 43 40 43 42 40 37 34 34 29 23 19 16 16 16
29 29 29 28 32 41 43 42 38 37 41 40 40 38 35 31 28 24 18 16 15 16
25 26 28 30 33 37 39 37 33 34 37 41 39 36 32 30 25 21 18 15 17 18
22 24 26 29 32 33 34 33 32 33 39 39 37 32 30 26 21 18 15 15 16 17
21 23 25 27 28 31 32 32 33 33 36 35 31 28 24 19 16 11 14 16 16 19
19 21 24 26 27 30 31 31 31 30 32 31 28 24 19 14 10 10 14 16 17 20
16 21 23 26 28 30 29 26 23 26 27 25 22 19 13 11 11 10 14 16 18 18
16 19 23 26 27 27 24 23 25 24 22 21 18 14 12 11 12 13 15 16 16 18
17 19 20 20 19 21 23 24 24 22 17 14 12 11 8 8 8 12 13 14 17 18
11 14 17 22 22 23 23 21 19 17 16 12 10 5 3 8 8 10 13 15 16 17
19 23 25 24 25 23 19 17 15 13 9 4 1 3 6 8 10 13 14 15 16 18
20 20 20 21 19 17 14 12 9 6 5 4 4 5 6 9 14 16 18 19 19 19

GFSNIL_850_spd_030.txt.gz
Wind_Speed
21 23 32 33 36 37 39 41 46 48 45 42 42 41 40 39 37 35 33 29 24 23
20 22 24 27 33 35 37 36 38 44 47 47 44 42 41 40 40 37 35 29 24 24
19 20 22 24 29 33 36 37 37 40 41 47 48 40 40 40 39 35 32 31 28 24
19 20 21 23 26 30 33 35 37 37 40 42 42 38 38 39 37 32 29 27 23 19
17 16 18 19 22 27 30 30 32 34 36 37 36 35 38 38 35 30 27 23 18 15
18 16 15 16 20 23 24 24 26 28 31 32 33 36 38 34 30 29 25 18 15 14
25 17 16 17 19 20 19 21 24 27 28 30 34 33 33 31 27 22 19 18 15 12
20 16 13 13 17 19 19 21 25 27 27 26 27 30 28 24 22 19 15 13 10 9
10 9 10 12 15 17 19 21 22 21 21 25 26 24 22 22 19 15 12 12 14 14
7 6 7 11 14 15 17 18 18 19 22 24 22 21 18 16 12 10 9 11 8 14
3 4 6 7 8 9 11 15 17 21 20 19 16 14 12 9 6 6 6 11 10 13
8 9 11 12 13 15 18 20 20 20 18 15 13 10 8 3 1 6 8 9 11 13
8 11 14 16 18 19 19 21 19 16 12 9 7 5 5 2 3 6 9 11 13 14
15 15 18 20 20 18 16 14 12 10 8 7 4 1 3 6 8 10 13 14 15 15

GFSNIL_850_spd_033.txt.gz
Wind_Speed
24 29 30 31 31 35 36 36 39 40 41 45 45 43 40 43 43 43 39 37 35 33
22 24 25 25 26 27 31 32 34 37 37 40 45 46 44 44 44 44 40 39 37 35
20 22 23 23 23 23 25 28 31 34 37 39 43 47 46 42 42 41 40 39 38 36
15 18 19 20 21 22 23 26 27 29 32 34 39 43 42 39 36 34 40 38 35 34
8 10 14 16 17 19 21 23 23 23 24 27 30 33 36 39 38 37 38 37 33 28
14 11 12 11 13 16 18 19 19 17 18 21 25 27 31 34 34 34 36 34 28 26
19 17 14 13 18 20 17 15 16 16 17 20 23 26 29 30 32 33 30 26 24 24
18 21 25 22 22 26 16 14 15 15 16 18 21 23 26 29 30 27 23 21 20 18
10 8 9 10 13 12 12 12 13 13 15 17 18 22 24 24 19 18 17 16 17 14
5 4 4 5 7 7 8 8 9 10 11 16 18 19 17 15 16 15 13 10 8 10
4 3 2 2 4 7 7 8 10 12 14 16 16 14 16 15 12 9 8 7 5 5
8 7 6 6 8 11 12 14 16 15 15 12 15 11 9 7 6 3 2 3 6 8
11 9 9 11 13 15 17 18 17 17 14 10 9 9 5 4 4 1 2 5 8 11
15 15 15 15 16 15 15 16 14 12 10 6 7 8 4 3 2 4 5 7 9 10

GFSNIL_850_spd_036.txt.gz
Wind_Speed
17 21 28 30 29 25 24 27 31 35 36 38 41 45 46 46 45 48 50 48 46 42
18 20 21 24 27 30 27 27 26 28 31 33 35 40 45 48 49 48 48 51 48 44
18 20 22 24 26 27 27 24 26 25 28 30 32 35 41 44 45 46 46 47 48 45
11 14 18 20 23 25 25 25 25 25 25 26 29 30 33 38 41 42 41 41 44 41
10 10 12 16 19 21 22 22 23 23 21 23 25 26 28 30 33 36 36 37 39 36
13 11 13 14 12 13 14 13 14 15 15 18 21 22 23 25 28 31 33 35 32 31
11 12 15 16 14 12 12 15 14 13 15 17 19 21 21 24 26 27 27 27 28 27
8 9 10 12 13 14 14 16 16 15 16 15 16 18 20 21 21 21 22 20 18 17
6 8 8 8 9 9 9 14 18 22 14 11 11 11 10 13 15 16 14 14 14 15
4 5 5 5 5 4 3 3 5 5 5 4 4 6 9 12 13 13 13 14 14 13
6 6 6 6 5 5 4 2 4 5 8 10 11 11 12 11 10 10 9 9 10 10
12 11 12 11 9 9 8 9 10 10 10 10 12 10 9 8 7 6 6 3 2 3
16 15 16 16 14 13 13 14 13 12 10 7 8 9 6 3 3 2 0 2 4 6
19 19 18 17 15 13 12 11 10 7 6 7 6 7 6 5 3 2 3 5 7 7

GFSNIL_850_spd_039.txt.gz
Wind_Speed
12 13 15 21 27 24 24 24 24 29 32 32 34 36 37 38 43 47 46 45 52 50
11 12 15 16 16 17 20 25 23 22 27 28 28 32 35 38 38 42 45 46 47 51
11 12 14 17 16 18 21 21 16 25 27 25 26 27 31 34 38 40 41 41 42 44
10 9 11 13 17 20 22 23 24 23 23 22 24 25 26 30 35 37 38 39 39 40
9 8 8 11 11 14 16 18 20 21 22 21 19 21 21 23 27 30 34 35 34 32
9 8 8 10 10 11 10 9 10 13 14 13 15 17 18 20 23 24 28 30 31 29
6 7 9 10 12 12 11 11 9 10 13 15 17 16 18 20 19 21 22 22 21 20
5 5 7 8 9 10 11 11 11 11 11 10 11 13 12 14 15 14 14 14 12 11
3 6 7 9 11 10 9 8 8 7 7 8 9 11 10 9 8 6 6 8 9 9
6 7 7 7 6 5 6 7 6 6 6 6 7 6 5 4 4 5 7 8 8 8
8 6 6 6 5 6 7 7 8 10 10 8 8 7 5 4 4 5 5 4 4 4
9 9 9 9 10 11 11 12 12 12 10 7 7 5 4 3 1 1 1 2 4 3
15 14 14 15 15 15 14 14 12 10 9 7 6 5 3 2 4 4 4 3 3 6
17 17 16 16 15 14 13 11 9 8 8 8 6 6 5 5 5 4 5 6 8 10

GFSNIL_850_spd_042.txt.gz
Wind_Speed
14 13 13 14 17 27 26 22 19 18 24 25 26 26 32 37 39 40 44 45 48 49
11 13 16 16 17 17 19 24 29 30 23 21 22 22 23 29 35 37 40 41 43 46
7 10 10 13 16 17 18 20 23 23 24 28 28 28 24 23 26 30 35 38 39 41
5 6 9 12 11 12 14 17 18 19 20 25 21 22 23 22 22 23 27 30 34 36
6 7 5 10 9 9 9 10 12 13 13 14 15 17 20 20 20 21 22 23 28 31
6 8 10 11 11 10 10 9 9 9 9 8 10 11 11 15 18 18 17 19 22 25
7 5 5 6 8 9 10 11 10 10 9 8 8 9 12 15 17 15 14 18 18 19
6 4 5 5 5 6 8 8 8 10 10 10 9 8 10 11 10 10 11 11 9 7
1 1 2 2 4 5 7 6 7 7 8 9 8 7 8 6 4 4 2 0 1 4
1 1 2 5 5 5 6 6 8 8 9 9 11 13 11 10 8 7 5 3 2 2
4 3 5 6 6 8 8 10 10 11 11 10 11 9 9 9 8 5 3 2 1 3
8 8 9 9 12 14 12 13 12 13 12 10 10 9 8 8 6 4 3 1 3 5
12 12 13 15 15 15 13 13 12 11 10 9 8 7 6 5 4 4 4 5 4 5
15 15 14 14 13 11 11 11 10 9 8 7 7 8 8 8 7 6 6 7 8 10

GFSNIL_850_spd_045.txt.gz
Wind_Speed
13 15 17 18 18 18 20 27 26 22 21 22 21 22 21 21 25 30 33 36 41 43
11 11 12 16 18 19 20 20 24 29 29 27 26 26 21 23 23 24 28 31 32 34
10 10 11 13 14 15 17 19 19 21 22 22 22 24 26 27 27 27 26 26 29 30
9 10 11 11 11 9 9 12 14 16 19 19 18 21 23 23 23 23 24 23 24 25
9 10 10 10 11 11 10 8 8 8 9 10 11 10 10 12 14 14 14 15 18 19
7 8 11 13 12 11 11 10 10 10 9 9 10 10 9 11 14 15 17 16 15 17
8 7 5 5 5 6 8 9 10 9 9 9 10 11 10 10 10 13 13 13 14 14
7 6 4 4 3 3 6 6 5 5 5 6 8 8 8 8 8 9 9 9 10 11
2 3 3 2 0 0 2 1 4 4 5 6 7 7 5 5 5 5 5 4 3 2
2 3 3 3 3 3 4 4 5 8 9 8 10 12 11 12 10 8 7 5 4 4
3 4 4 5 6 7 8 8 9 10 10 10 11 11 11 12 10 8 6 4 4 3
7 7 8 9 11 11 10 11 11 12 11 10 10 9 9 9 7 6 4 3 4 4
11 12 13 13 13 12 10 10 10 9 9 10 9 8 7 7 7 6 6 7 8 9
14 14 14 12 10 9 9 9 8 8 7 6 6 7 8 8 8 8 9 10 10 11

GFSNIL_850_spd_048.txt.gz
Wind_Speed
18 19 19 19 20 20 19 20 20 23 24 21 19 16 17 19 20 23 23 26 26 26
16 16 16 16 16 17 19 20 20 20 20 23 25 23 22 24 24 23 21 23 27 26
13 13 14 15 14 15 15 16 18 20 20 20 20 22 25 26 24 24 24 25 24 26
10 12 13 13 14 12 10 9 10 12 13 14 16 17 19 21 21 22 21 21 21 21
10 11 12 13 14 11 9 9 8 8 8 8 8 8 9 12 14 14 13 13 13 14
10 10 11 12 12 11 10 9 9 10 10 10 9 10 11 12 13 12 14 14 15 15
11 10 8 7 6 5 6 6 7 7 8 9 10 11 12 10 10 10 10 9 9 11
11 9 8 6 5 5 4 4 3 3 3 4 4 4 4 5 6 6 6 7 7 7
7 6 7 6 5 4 3 1 0 0 1 3 5 7 6 4 4 4 4 3 4 5
5 5 6 5 4 4 3 3 4 5 5 4 6 7 8 9 7 6 5 5 5 5
5 5 5 6 6 6 6 6 7 8 8 7 8 10 10 9 7 7 7 7 7 7
7 7 8 8 9 10 10 9 9 8 8 8 8 9 9 9 9 8 8 7 7 8
9 10 11 12 12 11 9 8 8 7 6 6 6 6 6 7 8 8 8 9 9 10
12 13 13 11 10 9 7 6 5 4 4 5 6 7 8 9 9 10 11 11 11 11

GFSNIL_850_spd_051.txt.gz
Wind_Speed
19 19 20 20 20 20 20 20 20 20 19 18 19 18 17 20 19 17 19 21 20 19
18 17 17 17 17 17 17 18 18 19 19 19 19 19 20 20 20 18 17 21 24 23
15 13 14 15 15 15 16 15 13 14 14 16 17 17 18 18 18 19 20 20 22 21
13 12 12 12 13 13 13 11 9 7 7 8 9 11 13 15 16 16 16 17 19 18
12 12 12 12 13 14 13 11 10 8 8 7 6 6 6 7 10 12 13 14 11 10
12 12 11 12 12 12 11 11 10 10 10 10 9 9 9 10 10 11 10 10 11 14
12 12 11 10 9 8 7 6 7 7 7 7 7 7 7 7 7 7 8 9 10 9
12 12 11 9 8 7 6 5 4 3 2 1 2 2 2 2 3 3 5 7 5 7
9 10 10 9 8 6 5 5 3 1 1 2 3 5 5 4 4 4 4 5 5 6
6 6 6 7 6 6 5 3 3 3 2 2 6 8 7 8 7 7 6 6 6 6
5 6 6 7 7 6 5 5 5 6 8 8 8 7 8 7 6 6 6 7 9 9
8 8 7 8 8 8 7 8 8 7 7 7 6 7 7 8 8 9 9 9 10 10
10 9 9 9 10 10 9 7 7 7 5 5 6 7 7 8 8 9 9 10 11 12
11 12 12 11 11 9 9 7 5 4 4 5 6 7 8 8 9 10 10 10 10 10

GFSNIL_850_spd_054.txt.gz
Wind_Speed
17 17 18 18 18 18 18 18 19 20 20 20 20 19 18 17 18 22 21 19 16 15
17 17 16 16 16 16 15 16 17 17 18 18 18 17 16 16 17 21 20 21 21 20
15 15 14 14 14 13 13 14 14 14 14 13 14 14 14 15 15 16 16 18 18 16
14 13 13 12 13 12 12 11 11 10 9 9 9 9 10 10 10 10 10 10 12 15
13 13 13 13 13 13 13 11 11 11 10 10 9 8 7 7 7 7 8 9 9 8
14 14 14 13 13 13 12 11 10 10 11 11 10 10 10 10 9 9 8 7 7 7
14 14 13 13 12 10 9 8 8 8 8 8 8 8 8 7 6 6 6 5 5 4
12 13 12 12 10 9 8 8 7 6 5 4 3 3 2 2 2 2 2 3 3 4
10 11 11 12 10 10 8 8 6 4 3 2 2 3 3 4 4 4 4 5 5 5
9 8 8 8 9 8 6 5 4 5 4 4 6 8 6 6 5 5 4 5 5 6
6 7 8 8 8 8 6 6 6 5 7 6 6 6 5 5 5 6 6 6 7 7
9 9 9 9 9 8 7 7 8 8 7 6 4 4 5 5 6 7 8 9 9 9
10 10 10 9 9 9 9 9 8 7 5 3 2 4 4 5 7 8 10 10 10 12
11 11 11 11 11 10 10 9 7 5 3 1 2 3 4 6 7 9 10 10 11 11

GFSNIL_850_spd_057.txt.gz
Wind_Speed
15 16 17 18 19 19 19 19 20 20 20 21 21 21 21 19 19 17 17 19 21 19
16 16 17 17 17 17 16 16 17 17 17 17 17 17 17 17 15 14 15 15 16 18
17 16 16 16 15 14 14 14 14 14 13 12 12 12 13 14 15 15 17 18 20 19
16 16 15 15 15 13 13 12 12 11 10 10 8 8 8 9 11 13 14 14 16 17
15 15 15 15 15 13 13 12 12 12 11 11 10 8 7 7 6 7 7 8 11 13
16 16 16 16 15 13 13 12 11 11 11 11 11 10 9 8 8 8 8 7 7 7
17 16 16 15 14 12 11 10 9 9 9 9 9 8 7 7 6 6 5 5 5 5
15 15 15 14 13 12 11 10 9 8 7 6 6 5 4 3 3 3 3 3 2 1
12 14 14 14 13 11 11 9 8 6 6 6 5 4 4 4 4 4 3 3 1 1
11 11 11 11 11 11 10 9 7 8 7 7 8 8 7 7 6 3 2 1 1 3
10 9 9 10 11 11 10 8 9 9 9 9 10 8 7 6 4 2 1 1 3 5
9 9 9 10 11 11 11 10 10 12 11 10 8 7 5 3 2 2 3 4 5 6
10 11 10 11 12 12 12 12 13 12 10 8 6 5 3 2 2 3 5 6 7 8
13 13 13 14 14 14 14 14 14 11 8 7 5 3 1 2 4 5 6 7 7 8

GFSNIL_850_spd_060.txt.gz
Wind_Speed
18 19 20 20 20 21 21 21 21 21 22 22 23 23 23 23 22 20 20 18 18 19
17 18 19 20 20 21 21 21 20 20 20 20 20 19 19 20 20 17 14 16 17 17
18 19 19 20 20 20 20 19 19 18 17 16 15 15 15 16 16 15 14 15 16 17
18 19 19 19 18 18 18 17 17 16 15 13 12 11 11 11 12 13 14 15 16 16
18 18 18 19 19 18 18 16 16 16 15 14 13 12 11 10 9 10 9 10 11 11
19 19 19 20 19 18 18 18 16 16 15 14 14 14 14 12 12 11 11 11 12 12
20 20 20 19 19 18 18 17 16 15 15 13 13 13 13 12 11 10 10 9 9 8
20 19 19 17 17 17 16 16 15 14 14 12 12 11 10 9 8 7 7 6 5 4
18 16 15 16 15 15 15 14 13 12 10 9 9 9 8 7 6 6 5 4 3 2
16 14 13 14 13 14 14 14 12 11 9 9 9 8 8 8 7 6 4 3 3 3
15 13 13 13 13 13 13 12 11 11 10 10 10 10 9 7 6 5 4 3 4 4
14 12 11 11 12 13 14 13 11 11 12 12 11 9 7 6 6 5 3 5 5 4
13 12 11 12 13 14 13 12 12 14 13 12 10 8 7 6 5 4 4 5 4 5
14 14 14 14 15 15 14 14 15 15 13 11 10 8 7 5 4 4 5 5 6 7

GFSNIL_850_spd_063.txt.gz
Wind_Speed
21 19 18 19 20 21 21 22 24 24 24 25 25 26 26 26 26 24 20 19 20 20
19 17 17 19 20 21 23 23 23 23 23 24 23 23 22 21 19 18 20 17 17 17
18 17 18 18 19 20 22 22 22 21 21 21 20 19 18 18 18 19 17 13 13 9
17 17 17 18 20 20 21 21 21 20 19 19 17 16 15 15 14 15 14 14 14 14
16 18 19 20 21 21 21 21 21 20 19 18 17 16 15 14 12 11 11 12 12 12
17 19 19 20 21 21 21 21 21 20 20 19 17 17 16 15 14 13 11 12 12 12
17 18 18 20 20 20 20 20 19 19 19 17 16 16 15 16 15 14 13 13 12 12
18 19 19 19 19 19 18 18 19 18 17 17 17 16 14 14 14 12 11 11 10 10
18 18 18 17 17 16 17 18 17 16 16 15 14 13 13 12 10 10 10 7 6 5
18 17 17 16 15 15 15 15 15 14 14 13 11 11 11 10 8 7 7 6 5 5
17 17 16 15 14 14 14 13 14 13 13 12 10 9 10 10 9 7 7 7 5 5
19 17 16 15 13 13 13 13 12 12 13 11 10 11 10 8 7 7 7 6 6 7
18 17 16 13 12 12 13 13 12 13 12 13 12 11 9 8 6 7 7 7 7 7
18 16 14 13 13 14 14 14 13 13 13 13 12 11 10 8 7 8 7 7 8 8

GFSNIL_850_spd_066.txt.gz
Wind_Speed
19 19 20 21 19 17 17 20 23 23 22 22 22 22 23 23 22 22 22 21 18 19
20 22 18 18 18 19 21 22 22 23 23 23 22 22 22 21 21 21 22 21 18 18
20 18 19 21 21 20 21 21 22 22 23 22 22 21 20 20 19 19 18 16 12 11
19 21 20 18 18 20 21 22 22 22 21 20 20 19 18 18 16 15 14 13 13 14
15 14 14 16 19 20 21 22 21 20 20 20 19 17 17 16 15 13 13 13 14 15
16 16 16 17 18 19 20 21 21 20 20 20 19 17 16 16 16 15 15 14 13 12
15 14 15 17 19 20 21 21 20 21 20 19 18 17 16 16 17 16 16 15 15 14
15 15 16 18 20 21 20 20 21 19 18 18 17 17 16 16 16 15 15 14 14 13
16 17 17 19 20 19 18 18 18 18 18 17 16 15 15 14 14 13 13 10 11 9
17 17 18 19 18 15 15 15 15 15 14 15 14 14 12 12 12 11 10 9 8 8
17 17 18 17 16 15 14 13 14 14 14 14 13 11 10 10 10 10 9 9 7 8
18 18 18 16 14 14 13 12 12 13 13 14 12 9 9 9 8 8 7 6 6 8
19 18 18 15 15 12 11 11 13 12 13 14 11 11 9 8 8 8 7 7 7 7
19 18 16 15 13 11 12 13 13 12 13 11 11 10 9 9 8 8 7 7 7 7

GFSNIL_850_spd_069.txt.gz
Wind_Speed
28 28 27 25 24 23 21 20 17 19 20 21 21 22 23 23 23 24 23 23 21 20
23 24 24 23 21 17 20 21 20 20 21 22 23 23 23 23 23 22 22 21 20 22
22 23 25 24 25 23 22 21 19 20 21 22 23 23 23 22 22 21 20 21 21 16
27 28 27 26 22 20 24 20 21 22 22 22 21 21 22 21 20 19 19 18 17 14
23 22 21 20 19 18 19 20 21 21 21 22 21 21 21 21 20 19 19 17 16 16
23 22 21 19 18 18 19 19 20 21 22 22 20 19 20 21 19 18 17 16 15 15
21 19 18 17 17 17 19 20 21 21 21 20 19 18 19 20 19 18 18 18 16 16
20 19 17 16 17 18 20 20 21 20 20 19 19 18 19 20 19 19 18 18 18 17
20 18 18 18 18 19 20 20 19 19 20 20 19 18 18 19 18 17 16 15 15 14
21 19 17 17 18 18 18 18 18 18 16 16 15 15 14 15 14 14 12 12 10 9
22 20 18 18 17 17 17 16 15 14 14 14 14 15 14 13 12 12 11 9 9 9
23 21 19 18 17 17 16 15 13 13 13 13 13 14 12 9 10 10 10 10 9 8
25 21 20 19 17 15 14 12 11 12 12 12 12 11 9 9 10 10 10 9 9 8
24 23 21 19 17 15 13 11 12 12 12 12 12 11 11 10 10 10 10 9 8 7

GFSNIL_850_spd_072.txt.gz
Wind_Speed
26 26 26 28 29 26 26 24 27 24 20 21 21 22 24 23 24 25 25 25 25 25
28 28 30 29 27 26 25 25 23 22 31 25 24 24 24 24 24 25 24 23 24 25
26 27 24 22 24 25 24 26 26 24 23 23 23 24 23 23 23 24 23 22 22 22
24 24 25 25 26 30 30 29 26 24 23 22 21 22 24 24 23 23 22 21 21 21
24 24 24 24 24 23 21 22 22 22 22 22 22 23 23 22 22 21 21 20 21 21
23 24 23 21 22 22 21 20 21 21 22 22 23 23 23 23 22 21 21 20 20 18
21 22 22 22 21 19 18 18 20 21 22 23 23 23 23 22 21 20 20 20 19 19
20 21 20 19 18 18 18 19 20 22 22 22 23 22 21 22 21 20 21 20 20 20
20 20 20 19 18 18 19 20 21 22 22 22 22 24 21 21 20 20 20 19 19 19
21 22 21 20 19 19 19 20 21 21 21 21 20 17 16 17 16 17 16 15 15 14
22 24 23 22 21 20 19 20 20 20 20 18 17 15 16 16 14 14 14 14 14 11
23 24 25 24 21 20 19 19 19 19 18 16 14 14 15 16 14 13 14 14 12 10
22 24 26 23 22 22 20 19 19 18 15 13 13 13 14 13 11 12 13 12 12 10
23 23 23 24 24 23 21 20 19 14 13 14 14 14 14 12 12 12 12 12 11 10

GFSNIL_850_spd_075.txt.gz
Wind_Speed
27 28 27 28 29 27 26 20 22 25 22 21 24 25 26 26 27 25 24 23 24 24
25 26 26 27 26 25 21 21 24 26 25 25 24 26 27 28 24 24 24 25 25 24
22 23 25 26 26 24 24 19 18 20 20 25 34 30 27 25 24 26 25 24 22 23
20 20 21 22 24 25 24 23 23 22 26 28 28 27 26 26 25 25 24 24 24 22
20 20 21 20 21 22 21 20 21 23 23 24 24 24 24 25 25 25 25 23 23 21
19 19 19 19 20 21 22 22 21 22 21 20 21 22 24 24 25 25 24 23 22 20
14 16 17 19 19 19 19 19 18 18 19 20 21 22 24 24 24 24 23 22 21 20
13 15 16 17 17 17 17 17 17 17 18 20 21 22 24 25 25 25 23 21 21 21
16 16 16 17 17 17 17 16 17 18 19 20 20 21 23 25 23 22 22 20 20 19
17 17 17 17 18 18 17 18 18 18 19 19 19 20 19 18 17 17 16 16 16 15
18 19 18 19 20 20 19 18 17 18 19 19 18 18 17 15 16 16 14 14 14 14
20 19 21 22 23 22 20 19 18 18 19 18 18 16 14 15 16 17 14 13 13 13
23 21 21 21 22 23 22 21 20 20 19 19 17 13 14 16 16 15 13 14 13 11
22 23 21 21 22 23 23 22 21 20 19 18 15 14 15 16 15 12 11 10 9 9

GFSNIL_850_spd_078.txt.gz
Wind_Speed
20 20 22 22 23 20 20 23 20 21 20 15 13 18 19 21 22 22 23 23 22 22
19 20 21 23 22 21 20 17 16 16 15 15 17 20 23 26 24 26 23 22 21 22
18 19 19 19 19 20 19 19 19 21 22 22 23 24 25 21 24 23 23 23 22 22
19 19 18 17 17 18 20 21 23 23 22 22 22 21 20 24 23 22 22 22 22 21
16 17 17 17 15 15 17 19 20 21 19 19 20 22 23 21 21 22 23 22 22 20
13 15 15 14 14 13 14 15 17 17 19 20 19 19 19 20 22 23 23 22 22 21
11 12 13 14 14 15 16 17 17 17 18 18 18 18 19 20 21 21 21 21 20 19
10 12 14 15 16 17 18 18 18 17 17 17 16 17 18 19 20 21 22 23 20 18
13 15 16 16 17 17 17 18 17 17 16 16 16 17 18 18 19 20 20 17 16 16
18 17 18 18 17 17 17 17 17 16 15 14 14 15 16 17 17 18 18 15 12 13
22 20 18 19 19 19 19 18 18 16 15 14 14 15 16 17 16 14 14 12 12 12
20 23 20 20 20 20 20 19 18 17 16 14 15 16 17 17 12 11 13 13 12 12
19 24 24 20 20 20 20 21 20 19 17 17 16 16 16 15 10 12 13 13 12 13
18 19 24 22 20 19 21 22 21 20 19 18 17 15 14 14 11 12 13 11 12 12

GFSNIL_850_spd_081.txt.gz
Wind_Speed
14 14 15 16 16 16 18 18 19 20 20 18 20 16 19 18 20 22 18 17 19 21
13 14 14 15 16 17 16 16 18 18 16 15 18 19 20 21 21 19 18 19 19 18
13 13 14 14 15 15 15 16 17 17 17 20 23 23 22 22 20 19 19 19 18 18
16 15 15 14 13 13 14 16 17 19 21 22 23 23 20 19 18 19 18 18 18 18
12 14 15 15 15 13 13 14 17 20 23 22 21 21 19 19 20 19 18 19 18 18
9 11 13 14 15 14 13 13 14 15 17 18 18 18 20 20 19 18 18 18 18 19
11 10 10 10 11 12 13 13 15 16 18 19 18 18 18 17 18 17 18 19 19 19
13 13 11 11 11 12 13 15 16 17 18 17 17 17 17 17 17 18 19 19 20 21
15 15 15 15 15 14 15 16 18 18 19 18 17 17 17 17 17 17 17 17 17 16
17 17 18 18 18 18 18 17 18 17 17 16 16 16 16 16 16 15 16 16 16 12
19 18 20 21 20 20 20 20 20 19 18 18 17 16 16 15 14 14 15 14 13 9
19 18 19 23 22 22 21 21 20 19 18 18 17 16 15 14 13 14 13 12 11 10
19 18 19 22 24 23 22 21 21 21 20 19 18 17 17 16 14 13 13 13 13 13
20 18 17 20 26 24 22 22 23 23 22 21 20 19 18 18 15 13 13 12 13 14

GFSNIL_850_spd_084.txt.gz
Wind_Speed
18 17 17 18 20 21 21 26 24 21 22 21 22 18 19 21 24 26 24 21 20 20
13 14 15 17 19 22 21 24 24 23 25 25 27 24 23 22 21 21 24 22 20 19
9 11 11 13 15 16 18 21 22 22 23 26 26 23 21 22 23 24 24 22 20 19
8 10 12 13 13 14 15 17 20 22 23 23 22 23 24 24 24 23 22 21 20 21
8 8 9 12 14 15 16 16 17 20 23 24 24 24 25 25 24 23 22 20 21 21
9 10 11 12 12 14 15 17 17 19 22 25 27 27 26 25 24 23 22 21 20 21
11 10 11 13 14 15 15 15 16 18 20 23 24 25 24 23 23 22 22 21 21 22
15 15 14 13 14 15 16 16 16 16 18 20 21 22 23 22 21 21 21 20 21 21
15 15 16 17 16 16 17 19 19 20 21 22 23 23 22 21 20 21 21 20 20 20
18 15 15 18 20 19 20 20 22 23 24 24 24 23 22 21 20 21 20 19 18 17
19 18 17 17 21 23 23 22 23 23 24 24 23 22 21 20 19 20 18 17 16 16
19 19 18 19 19 24 25 24 23 24 24 24 23 22 21 21 19 17 17 15 15 14
20 20 20 19 20 21 26 25 25 24 24 24 23 22 22 21 18 17 16 16 15 15
18 20 20 21 20 22 25 27 26 26 26 26 25 24 23 23 21 18 19 17 16 16

GFSNIL_850_spd_087.txt.gz
Wind_Speed
18 25 27 23 22 23 28 26 22 22 19 18 23 20 23 22 23 21 20 24 21 18
19 17 24 24 25 27 30 31 27 30 26 23 22 22 21 23 24 26 28 26 23 19
10 14 16 18 19 22 26 29 27 30 29 32 30 28 29 29 29 31 29 28 25 23
6 9 11 14 18 19 22 24 23 26 26 27 29 31 32 32 30 27 27 26 25 22
3 4 8 12 15 17 19 21 21 22 23 24 27 29 30 29 27 27 27 25 24 22
8 8 8 10 12 15 17 18 19 20 22 23 26 28 27 27 28 28 26 26 25 24
8 9 10 13 13 14 15 16 18 19 21 22 26 27 29 29 28 29 27 27 26 25
13 12 11 12 14 15 14 15 16 17 19 20 23 26 29 30 29 27 26 26 24 25
15 15 15 14 14 17 17 17 17 16 18 18 20 22 22 22 24 24 25 24 24 24
15 16 17 16 16 17 19 20 20 20 20 20 22 22 23 24 25 24 24 23 23 23
19 18 18 17 17 17 19 22 23 22 23 23 24 22 23 24 25 25 24 23 23 21
19 20 19 20 20 18 20 22 25 24 24 25 26 24 24 25 25 23 22 22 23 22
17 16 18 20 21 21 20 22 24 27 26 25 26 26 26 26 25 24 23 23 23 21
21 21 19 20 19 19 20 21 25 27 28 27 27 28 27 27 27 24 22 22 22 21

GFSNIL_850_spd_090.txt.gz
Wind_Speed
21 9 17 8 15 13 22 30 23 25 24 20 17 18 24 19 19 21 14 28 20 20
9 20 22 22 21 24 23 22 25 26 24 21 19 20 21 19 20 22 22 24 22 23
16 21 20 23 22 24 25 26 29 28 29 28 31 32 25 23 25 25 28 27 28 28
4 8 11 13 16 22 23 23 25 26 29 30 33 36 34 33 31 30 31 29 30 32
2 5 7 9 13 16 18 20 23 25 26 27 29 30 32 32 31 31 32 31 29 30
4 5 6 7 10 12 15 18 20 22 23 25 26 27 27 31 31 33 33 28 26 27
6 8 9 9 11 13 14 15 17 20 22 23 24 26 29 31 32 29 29 28 28 28
12 12 11 12 13 14 15 16 16 18 21 22 23 22 26 27 28 28 29 29 28 27
15 15 15 14 15 16 18 17 18 19 20 20 21 21 24 26 27 27 27 27 27 26
15 16 16 16 16 15 17 20 21 21 22 21 21 21 21 22 23 23 23 23 24 25
16 17 17 18 18 18 18 19 21 24 23 23 23 21 22 23 25 25 26 25 25 25
15 15 16 18 18 18 19 19 19 21 24 26 24 23 23 24 28 28 27 26 25 25
17 16 17 19 18 18 19 21 20 22 22 23 26 25 25 25 27 28 28 28 27 26
21 21 20 19 19 20 18 18 18 19 21 22 24 27 27 27 27 29 29 28 26 25

GFSNIL_850_spd_093.txt.gz
Wind_Speed
2 8 15 21 16 23 17 18 20 26 23 19 20 24 24 24 27 28 27 25 23 21
6 7 6 9 11 13 16 14 13 27 26 28 22 22 25 22 19 25 25 27 26 20
11 12 13 16 15 16 20 23 24 24 27 27 25 24 27 25 23 18 17 24 23 21
2 4 8 11 12 21 23 26 27 27 23 26 29 27 31 33 32 27 23 23 30 28
3 1 3 6 9 12 14 15 17 19 21 21 24 29 33 33 32 28 28 33 30 31
7 6 6 7 8 11 13 16 17 19 19 20 22 23 22 23 25 26 26 30 29 33
11 11 12 12 12 12 14 16 18 18 18 19 20 21 22 23 24 27 28 29 31 34
14 14 14 15 15 16 16 16 17 18 18 19 18 19 20 21 24 25 28 30 30 27
15 16 17 18 19 19 19 20 20 19 19 19 19 18 18 20 22 25 26 27 27 26
18 18 18 19 20 21 21 21 22 22 21 20 20 19 20 20 21 23 25 26 26 28
18 18 19 20 21 21 22 22 22 22 23 24 22 21 21 21 22 22 22 21 24 26
18 19 18 19 21 22 22 23 21 20 22 23 24 23 23 23 23 23 24 23 24 25
23 22 22 21 22 22 23 24 24 21 18 20 24 24 22 24 26 25 25 26 28 28
24 24 24 24 23 23 23 24 25 23 19 18 19 21 23 26 27 28 26 30 30 29

GFSNIL_850_spd_096.txt.gz
Wind_Speed
7 10 12 15 27 29 23 20 31 22 26 31 32 29 29 31 28 28 32 33 40 38
8 5 2 5 6 3 12 18 17 15 19 25 30 29 25 29 29 29 29 33 34 33
3 1 4 6 5 6 7 7 12 14 20 20 26 30 24 25 26 24 24 26 31 33
7 3 8 8 11 13 14 16 16 17 21 19 25 28 26 28 26 29 30 30 27 24
4 4 5 6 7 9 10 11 14 16 16 16 17 21 29 34 30 31 32 33 33 27
6 6 6 7 7 8 9 11 12 14 15 16 16 19 23 26 29 33 32 29 28 31
8 9 10 11 12 12 13 14 14 15 15 14 15 19 21 21 24 25 29 27 28 28
15 15 15 15 15 15 16 18 19 19 18 17 18 18 20 22 23 23 26 26 28 28
16 17 19 20 20 19 18 19 19 20 21 20 20 20 20 21 22 24 25 25 27 29
21 22 23 23 23 22 22 22 21 21 23 21 22 22 22 21 22 23 23 25 26 27
21 20 20 21 24 26 27 27 26 24 22 23 24 24 23 21 22 24 23 24 25 26
20 22 23 24 25 25 27 28 29 29 27 26 25 20 19 20 23 24 24 24 25 26
24 25 26 27 26 25 26 28 28 28 27 27 24 19 17 18 23 26 25 24 25 26
28 28 28 27 25 25 24 24 24 27 28 27 25 20 16 18 20 23 26 25 27 27

GFSNIL_850_spd_099.txt.gz
Wind_Speed
13 15 15 16 16 21 32 28 30 22 27 33 40 39 41 41 37 35 31 33 32 32
4 4 5 1 5 4 6 7 9 13 17 22 19 37 29 35 38 41 38 37 32 32
5 5 5 3 5 6 7 7 8 9 11 12 12 18 21 24 31 34 34 37 40 38
10 9 7 10 9 13 13 12 10 11 16 17 17 14 16 23 30 26 30 33 30 30
7 7 9 11 9 9 10 10 10 10 12 15 19 18 17 24 29 27 29 31 30 29
6 7 6 8 10 12 11 11 11 12 12 13 15 17 20 21 18 22 28 34 34 34
12 13 14 14 14 15 16 16 16 15 15 15 16 17 19 21 24 28 30 27 25 29
16 16 16 16 17 18 19 19 20 20 20 20 19 19 21 22 23 24 27 29 31 29
18 19 20 20 20 20 21 20 20 20 21 21 21 23 23 23 25 26 27 26 26 30
17 17 19 22 24 25 26 25 24 23 23 22 22 23 25 28 29 28 27 28 27 28
21 22 23 23 24 24 25 26 28 29 27 26 25 25 25 26 26 28 30 28 28 28
25 27 27 27 28 28 28 28 27 27 27 28 28 26 24 24 25 26 27 28 28 27
28 29 32 33 34 33 32 30 28 28 27 27 28 25 25 23 21 22 25 26 28 27
29 30 31 32 31 33 33 33 32 30 27 27 27 27 24 22 19 19 21 24 24 27

GFSNIL_850_spd_102.txt.gz
Wind_Speed
11 14 17 16 15 17 15 14 22 28 33 30 30 32 31 34 37 38 39 40 39 40
2 4 3 2 4 4 6 8 8 8 10 11 24 27 27 36 43 39 36 35 32 32
8 6 7 9 10 9 9 9 9 10 10 11 7 7 14 19 35 39 40 52 45 38
14 14 15 15 16 16 15 17 19 16 13 13 14 15 15 12 14 20 28 38 46 49
10 11 12 15 16 17 14 12 10 12 13 13 14 14 16 18 16 20 23 25 26 30
9 10 11 11 10 12 13 13 14 13 13 13 14 15 15 17 21 22 15 18 30 30
13 14 14 15 15 17 18 17 16 17 17 17 17 17 18 20 21 22 24 27 31 27
15 16 17 18 18 19 20 21 21 21 21 20 20 20 20 22 24 25 26 26 28 29
17 18 19 20 22 23 23 22 22 22 23 22 22 23 23 25 27 27 28 30 29 28
20 22 23 24 25 26 27 28 28 28 29 28 25 24 25 26 27 28 29 29 31 33
21 22 23 24 25 27 27 27 28 27 27 27 26 26 26 26 26 27 28 28 28 30
22 23 25 27 28 29 31 32 32 30 29 28 28 28 28 28 28 29 29 27 28 25
22 25 27 28 30 31 32 32 31 31 30 29 28 27 27 27 28 29 29 29 26 27
27 29 30 32 33 34 34 33 32 31 29 27 25 25 24 24 25 27 28 25 25 27

GFSNIL_850_spd_105.txt.gz
Wind_Speed
3 4 7 8 9 12 10 12 13 17 13 16 20 25 35 35 35 29 38 47 52 47
7 5 6 7 7 6 3 3 7 6 10 11 10 13 14 36 25 29 30 35 34 41
15 13 13 13 14 15 13 14 12 12 11 9 10 10 12 8 10 14 30 33 39 40
15 15 13 14 16 14 18 17 16 12 12 13 12 14 11 12 14 13 15 18 28 38
13 12 11 11 11 11 13 12 12 14 13 13 16 16 15 16 16 17 17 13 15 22
6 7 8 9 8 9 11 12 13 13 14 14 14 15 15 16 17 19 21 21 24 16
9 11 12 13 13 14 15 15 16 16 17 17 17 18 18 18 19 19 19 21 21 22
13 14 14 15 17 18 18 19 19 20 19 19 20 21 22 23 23 23 23 22 22 23
14 15 17 19 20 21 22 22 23 24 24 23 23 22 23 25 27 27 27 28 27 25
19 21 22 22 21 22 22 23 23 24 24 24 24 25 25 26 26 27 28 29 30 31
19 19 20 21 23 24 25 26 26 26 25 25 23 23 23 23 25 26 27 28 29 30
20 21 23 25 26 27 29 30 30 29 29 28 27 26 25 24 25 25 25 26 27 28
21 24 26 27 29 29 29 29 29 29 27 25 26 24 25 24 25 27 28 27 25 26
23 25 26 26 26 27 27 27 26 26 26 26 24 26 25 24 25 25 27 25 25 26

GFSNIL_850_spd_108.txt.gz
Wind_Speed
7 4 2 5 8 9 10 10 14 13 17 13 14 19 23 25 29 33 35 36 39 46
11 10 7 5 3 3 2 2 3 4 6 8 9 13 13 15 12 15 31 38 35 39
12 12 10 8 5 6 7 7 6 7 8 9 9 10 13 12 15 12 14 14 18 32
13 11 9 7 7 7 7 9 10 9 10 11 12 14 14 15 14 15 14 17 19 22
11 12 10 10 9 9 8 9 12 11 12 11 13 14 14 15 18 17 19 19 20 22
7 6 10 10 11 11 11 12 13 14 15 15 16 17 17 17 17 18 19 21 21 22
7 8 10 12 14 14 15 15 16 16 18 19 19 20 20 21 22 21 21 20 20 20
11 11 12 14 15 16 17 17 18 19 18 19 19 20 22 23 23 24 24 24 24 23
13 15 15 16 16 17 18 18 19 20 21 21 21 20 20 21 22 23 24 26 26 27
16 17 18 18 19 20 21 21 21 21 21 21 20 20 21 22 23 24 25 26 27 28
18 18 19 20 21 22 22 22 22 22 21 21 20 18 17 17 18 20 21 22 24 25
18 19 21 21 22 22 22 22 22 22 22 21 21 19 19 19 17 16 17 17 17 19
19 20 20 19 20 20 21 22 23 23 23 23 22 21 20 21 18 18 18 18 17 18
16 16 16 17 19 20 21 22 23 23 22 20 17 18 20 21 21 18 20 20 20 19

GFSNIL_850_spd_111.txt.gz
Wind_Speed
12 1 1 5 6 4 2 5 9 10 11 15 17 20 19 21 24 27 30 30 33 34
9 7 7 8 6 4 2 3 2 1 3 5 8 9 13 13 16 14 14 16 18 23
13 11 10 8 7 5 5 3 1 2 4 6 8 8 10 10 11 14 14 14 14 15
14 13 11 8 8 8 6 4 4 5 8 7 11 15 15 16 16 18 17 19 19 19
10 9 10 12 10 9 10 11 11 11 11 13 14 14 15 19 21 20 19 19 21 21
8 9 10 10 11 12 12 13 14 15 15 15 16 17 17 17 16 18 19 20 19 20
10 10 11 13 14 15 15 16 16 17 17 17 18 18 19 20 20 21 20 20 21 21
14 15 16 17 17 17 17 17 18 18 18 18 17 16 19 21 21 21 22 22 20 21
16 17 17 17 17 18 19 19 20 19 19 18 16 18 19 19 20 20 21 22 23 23
17 17 17 18 18 18 19 19 18 18 17 17 16 16 16 17 19 19 19 21 22 22
16 17 18 20 19 18 17 17 17 16 16 17 16 15 14 15 16 17 17 18 18 18
19 20 20 18 17 17 17 17 17 17 17 17 17 14 14 14 15 14 15 15 15 16
20 19 17 16 16 17 17 18 18 18 17 17 18 14 14 15 15 15 15 15 15 15
17 16 16 17 17 18 19 20 20 20 18 16 15 16 16 17 18 18 21 20 19 17

GFSNIL_850_spd_114.txt.gz
Wind_Speed
13 12 2 2 6 5 5 3 2 5 6 8 11 14 16 17 19 20 24 24 28 30
7 7 7 9 4 4 6 6 4 1 2 2 3 5 7 12 11 14 12 15 14 13
14 14 14 12 8 5 6 6 5 4 2 2 3 4 6 7 10 12 15 14 14 16
11 9 9 9 8 7 8 8 8 7 7 8 8 10 12 13 15 15 15 16 17 17
11 11 12 13 14 15 14 13 13 11 10 11 10 11 12 13 14 16 17 20 22 21
10 11 12 12 13 13 14 15 15 13 12 13 14 15 15 15 16 16 16 16 17 18
11 13 14 15 14 14 14 14 14 15 16 16 15 14 17 17 18 18 17 16 16 16
15 17 17 17 17 17 18 18 18 18 16 15 15 13 18 18 17 17 17 16 17 18
16 18 19 19 20 20 20 18 17 16 16 15 15 14 15 18 18 17 17 18 19 20
17 18 19 20 20 19 18 17 16 16 16 15 15 15 15 15 17 18 18 16 16 17
17 18 19 18 16 16 17 17 17 16 16 16 15 16 15 15 15 15 15 15 15 17
18 19 18 15 15 15 16 16 16 16 16 16 16 15 15 17 19 18 17 14 13 16
19 17 14 14 15 16 16 17 16 16 16 17 17 14 14 14 18 20 19 19 19 17
16 14 14 15 16 17 19 19 18 18 16 16 14 15 15 15 17 21 24 24 25 21

GFSNIL_850_spd_117.txt.gz
Wind_Speed
14 14 11 9 11 10 12 9 8 8 6 4 8 5 5 9 11 11 14 15 18 20
17 19 20 17 15 18 15 11 4 9 8 5 5 1 1 1 4 6 8 9 10 11
14 15 14 13 14 15 13 12 9 9 8 6 4 3 3 3 4 5 6 8 9 11
12 12 13 14 15 14 14 12 11 12 12 11 10 9 9 9 10 11 12 12 14 14
12 13 14 15 14 14 14 13 12 12 12 12 12 12 12 12 12 13 14 15 15 15
12 13 14 14 14 14 13 13 12 12 12 12 12 13 12 12 12 13 14 14 15 15
12 14 15 15 15 15 15 15 15 14 13 12 11 11 14 14 13 12 11 11 12 13
14 15 15 15 15 16 16 15 14 13 13 12 11 11 12 14 13 12 12 11 12 13
14 15 16 17 17 16 13 12 12 12 12 11 11 10 10 12 13 13 13 13 12 10
15 17 17 17 16 14 13 14 14 14 14 13 13 12 12 12 13 13 13 12 11 10
15 16 16 15 12 13 14 14 14 13 13 12 11 12 12 12 14 15 13 13 13 14
17 17 15 12 12 13 13 14 14 13 13 12 12 12 13 14 18 19 19 18 15 15
16 16 12 11 11 12 13 15 14 13 13 13 14 13 13 12 15 18 21 21 20 19
15 13 11 11 13 15 16 16 16 16 15 15 14 14 15 16 16 16 19 21 22 22